Location: Unspecified
(0.0000°N, 0.0000°E)
Time: 14:49:01
(UTC+00:00)

Altair - Visible Passes

Search period start: 02 September 2015 00:00
Search period end: 12 September 2015 00:00
Orbit: 1502 x 1682 km, 47.2° (Epoch: 31 August)

Date Brightness Start Highest point End Pass type
(mag) Time Alt. Az. Time Alt. Az. Time Alt. Az.
04 Sep 9.6 21:39:24 10° NNW 21:39:27 10° NNW 21:39:27 10° NNW visible
05 Sep 9.3 21:14:30 10° NNW 21:15:44 14° NNW 21:15:44 14° NNW visible
06 Sep 9.0 20:49:38 10° NNW 20:52:07 19° N 20:52:07 19° N visible
07 Sep 8.8 20:24:48 10° N 20:28:33 22° N 20:28:33 22° N visible
08 Sep 8.6 20:00:01 10° N 20:05:03 24° NNE 20:05:03 24° NNE visible
08 Sep 9.7 22:02:54 10° NW 22:03:06 11° NW 22:03:06 11° NW visible
09 Sep 8.5 19:35:17 10° N 19:41:39 23° NE 19:41:39 23° NE visible
09 Sep 9.3 21:37:41 10° NW 21:39:42 19° NW 21:39:42 19° NW visible
10 Sep 8.5 19:10:37 10° N 19:16:47 21° NE 19:18:20 20° ENE visible
10 Sep 8.7 21:12:29 10° NW 21:16:24 29° NW 21:16:24 29° NW visible
11 Sep 8.7 18:46:02 10° N 18:51:32 18° NE 18:55:07 15° ENE visible
11 Sep 8.1 20:47:20 10° NW 20:53:11 45° NW 20:53:11 45° NW visible
